Back to catalog

CZ-6A DEB

AlivePO
NORAD 60823·DEBRIS·🇨🇳 China

Launched Aug 6, 2024 from Taiyuan Satellite Launch Center

Loading…

Next Passes (next 24 hours)

TLE

FreshSource: Space-Track

Epoch: Sep 14, 2026, 07:14 UTC

1 60823U 24140HA  26257.30206535  .00000577  00000-0  43263-3 0  9996
2 60823  89.0249 272.7067 0235169  36.1700 325.5116 13.81035408105122

Track CZ-6A DEB in real time with AllMySat

Download on the App Store